Regional Weather Roundup
Issued by NWS Goodland, KS

Home | Current Version | Previous Version | Graphics & Text | Print | Product List | Glossary On
Versions: 1 2 3 4 5 6 7 8 9 10 11 12 13 14 15 16 17 18 19 20 21 22 23 24 25 26 27 28 29 30 31 32 33 34 35 36 37 38 39 40 41 42 43 44 45 46 47 48 49 50
000
ASUS43 KGLD 191808
RWRGLD

GOODLAND FORECAST AREA HOURLY WEATHER ROUNDUP
NATIONAL WEATHER SERVICE GOODLAND KS
1100 AM MST FRI JAN 19 2018

...OFFICIAL OBSERVATIONS...

CITY           SKY/WX    TMP DP  RH WIND       PRES   REMARKS
GOODLAND KS    PTSUNNY   65  16  15 SW17G25   29.72F
HILL CITY KS   CLOUDY    54  20  26 S6        29.72F
IMPERIAL NEB   CLOUDY    46  24  42 NW3       29.70F
MCCOOK NEB     CLOUDY    44  24  45 W5        29.70F
AKRON CO       CLOUDY    53  19  26 W13       29.76F
BURLINGTON CO  PTSUNNY   65  16  15 SW20G28   29.75F
LIMON CO       CLOUDY    65  18  16 W7        29.81F
$$

...UNOFFICIAL OBSERVATIONS...

CITY           SKY/WX    TMP DP  RH WIND       PRES   REMARKS
COLBY KS       CLOUDY    63  28  27 SW13      29.73F
NORTON KS      SUNNY     54  18  24 CALM      29.70
SHARON SPRINGS   N/A     60  18  19 SW18G25     N/A
KIT CARSON CO    N/A     55  20  25 MISG        N/A
YUMA CO        FAIR      55  18  22 W14       29.74F
$$




USA.gov is the U.S. government's official web portal to all federal, state and local government web resources and services.